Location: Orange Harbor Mobile Home Park
(26.6923°N, 81.7937°W)
Time: 22:33:54
(UTC+00:00)

CZ-4 R/B - Pass Details

Date: 19 September 2020
Orbit: 530 x 600 km, 97.7° (Epoch: 25 October)

Event Time Altitude Azimuth Distance (km) Brightness Sun altitude
Rises 01:02:47 0° 200° (SSW) 2,823 5.0 -21.9°
Reaches altitude 10° 01:05:29 10° 219° (SW) 1,930 4.4 -22.5°
Maximum altitude 01:08:25 18° 264° (W) 1,466 4.3 -23.1°
Drops below altitude 10° 01:11:22 10° 308° (NW) 1,940 5.0 -23.8°
Sets 01:14:07 0° 327° (NNW) 2,843 5.7 -24.4°
